Location: ????????
(55.6333°N, 37.7000°E)
Time: 03:21:36
(UTC+00:00)

Cosmos 1975 - Pass Details

Date: 19 May 2025
Orbit: 487 x 506 km, 82.5° (Epoch: 14 June)

Event Time Altitude Azimuth Distance (km) Brightness Sun altitude
Rises 21:07:55 0° 340° (NNW) 2,579 7.8 -14.3°
Reaches altitude 10° 21:10:16 10° 327° (NNW) 1,690 6.3 -14.3°
Maximum altitude 21:13:21 26° 270° (W) 1,011 4.2 -14.4°
Enters shadow 21:15:22 16° 225° (SW) 1,338 4.4 -14.4°
